Hourly Weather Al Mahwit

Today, 6 March, Saturday

Time Temperature Precipitation Wind Pressure Humidity
00:00 +20°C° 0 mm 0 mps 659 mmHg 82%
01:00 +20°C° 0 mm 0 mps 658 mmHg 81%
02:00 +22°C° 0 mm 1 mps 658 mmHg 80%
03:00 +22°C° 0 mm 1 mps 658 mmHg 79%
04:00 +19°C° 0 mm 0 mps 658 mmHg 78%
05:00 +19°C° 0 mm 0 mps 658 mmHg 77%
06:00 +19°C° 0 mm 0 mps 658 mmHg 76%
07:00 +22°C° 0 mm 1 mps 659 mmHg 68%
08:00 +23°C° 0 mm 1 mps 659 mmHg 61%
09:00 +24°C° 0 mm 1 mps 660 mmHg 54%
10:00 +25°C° 0 mm 2 mps 660 mmHg 50%
11:00 +26°C° 0 mm 2 mps 660 mmHg 47%
12:00 +27°C° 0 mm 3 mps 660 mmHg 43%
13:00 +28°C° 0 mm 3 mps 659 mmHg 43%
14:00 +28°C° 0 mm 3 mps 659 mmHg 44%
15:00 +28°C° 0 mm 3 mps 658 mmHg 44%
16:00 +27°C° 0.1 mm 3 mps 658 mmHg 51%
17:00 +26°C° 0.1 mm 3 mps 658 mmHg 58%
18:00 +25°C° 0.1 mm 2 mps 658 mmHg 65%
19:00 +24°C° 0 mm 2 mps 658 mmHg 67%
20:00 +24°C° 0 mm 2 mps 658 mmHg 68%
21:00 +23°C° 0 mm 1 mps 659 mmHg 70%
22:00 +23°C° 0 mm 1 mps 659 mmHg 71%
23:00 +23°C° 0 mm 1 mps 658 mmHg 71%

Tomorrow, 7 March, Sunday

Time Temperature Precipitation Wind Pressure Humidity
00:00 +23°C° 0 mm 1 mps 658 mmHg 72%
01:00 +22°C° 0 mm 1 mps 658 mmHg 71%
02:00 +22°C° 0 mm 1 mps 657 mmHg 69%
03:00 +22°C° 0 mm 1 mps 657 mmHg 68%
04:00 +22°C° 0 mm 1 mps 657 mmHg 65%
05:00 +22°C° 0 mm 1 mps 657 mmHg 61%
06:00 +21°C° 0 mm 1 mps 658 mmHg 57%
07:00 +23°C° 0 mm 1 mps 658 mmHg 50%
08:00 +24°C° 0 mm 1 mps 659 mmHg 42%
09:00 +25°C° 0 mm 1 mps 660 mmHg 34%
10:00 +26°C° 0 mm 2 mps 659 mmHg 34%
11:00 +27°C° 0 mm 2 mps 659 mmHg 34%
12:00 +28°C° 0 mm 3 mps 659 mmHg 35%
13:00 +28°C° 0 mm 3 mps 658 mmHg 36%
14:00 +28°C° 0 mm 3 mps 658 mmHg 38%
15:00 +28°C° 0 mm 4 mps 657 mmHg 39%
16:00 +27°C° 0 mm 3 mps 657 mmHg 45%
17:00 +26°C° 0 mm 3 mps 657 mmHg 51%
18:00 +25°C° 0 mm 3 mps 657 mmHg 58%
19:00 +25°C° 0 mm 2 mps 657 mmHg 61%
20:00 +24°C° 0 mm 2 mps 657 mmHg 64%
21:00 +23°C° 0 mm 1 mps 657 mmHg 66%
22:00 +23°C° 0 mm 1 mps 657 mmHg 66%
23:00 +23°C° 0 mm 1 mps 657 mmHg 66%

Day after tomorrow, 8 March, Monday

Time Temperature Precipitation Wind Pressure Humidity
00:00 +21°C° 0 mm 0 mps 657 mmHg 65%
01:00 +21°C° 0 mm 0 mps 656 mmHg 64%
02:00 +21°C° 0 mm 0 mps 656 mmHg 63%
03:00 +21°C° 0 mm 0 mps 655 mmHg 62%
04:00 +20°C° 0 mm 0 mps 655 mmHg 60%
05:00 +20°C° 0 mm 0 mps 656 mmHg 58%
06:00 +22°C° 0 mm 1 mps 656 mmHg 56%
07:00 +23°C° 0 mm 1 mps 657 mmHg 48%
08:00 +24°C° 0 mm 1 mps 657 mmHg 40%
09:00 +26°C° 0 mm 1 mps 658 mmHg 32%
10:00 +27°C° 0 mm 1 mps 658 mmHg 33%
11:00 +27°C° 0 mm 2 mps 658 mmHg 34%
12:00 +28°C° 0 mm 3 mps 658 mmHg 34%
13:00 +28°C° 0 mm 3 mps 657 mmHg 36%
14:00 +28°C° 0 mm 4 mps 656 mmHg 37%
15:00 +29°C° 0 mm 4 mps 656 mmHg 39%
16:00 +28°C° 0 mm 4 mps 656 mmHg 44%
17:00 +27°C° 0 mm 3 mps 656 mmHg 49%
18:00 +26°C° 0 mm 3 mps 656 mmHg 54%
19:00 +25°C° 0 mm 2 mps 656 mmHg 57%
20:00 +24°C° 0 mm 2 mps 656 mmHg 59%
21:00 +24°C° 0 mm 1 mps 657 mmHg 61%
22:00 +24°C° 0 mm 1 mps 657 mmHg 61%
23:00 +24°C° 0 mm 1 mps 657 mmHg 61%

9 March, Tuesday

Time Temperature Precipitation Wind Pressure Humidity
00:00 +21°C° 0 mm 0 mps 657 mmHg 61%
01:00 +21°C° 0 mm 0 mps 656 mmHg 60%
02:00 +21°C° 0 mm 0 mps 656 mmHg 60%
03:00 +21°C° 0 mm 0 mps 655 mmHg 60%
04:00 +21°C° 0 mm 0 mps 655 mmHg 60%
05:00 +20°C° 0 mm 0 mps 656 mmHg 60%
06:00 +20°C° 0 mm 0 mps 656 mmHg 60%
07:00 +21°C° 0 mm 0 mps 657 mmHg 56%
08:00 +24°C° 0 mm 1 mps 657 mmHg 51%
09:00 +25°C° 0 mm 1 mps 658 mmHg 46%
10:00 +26°C° 0 mm 2 mps 658 mmHg 45%
11:00 +27°C° 0 mm 3 mps 658 mmHg 43%
12:00 +28°C° 0 mm 4 mps 658 mmHg 42%
13:00 +28°C° 0 mm 4 mps 657 mmHg 43%
14:00 +28°C° 0 mm 4 mps 657 mmHg 45%
15:00 +28°C° 0 mm 4 mps 656 mmHg 46%
16:00 +27°C° 0 mm 3 mps 656 mmHg 48%
17:00 +27°C° 0 mm 3 mps 656 mmHg 50%
18:00 +26°C° 0 mm 3 mps 656 mmHg 52%
19:00 +25°C° 0 mm 2 mps 657 mmHg 52%
20:00 +25°C° 0 mm 1 mps 657 mmHg 52%
21:00 +24°C° 0 mm 1 mps 657 mmHg 53%
22:00 +24°C° 0 mm 1 mps 657 mmHg 52%
23:00 +22°C° 0 mm 0 mps 657 mmHg 52%

10 March, Wednesday

Time Temperature Precipitation Wind Pressure Humidity
00:00 +22°C° 0 mm 0 mps 657 mmHg 52%
01:00 +22°C° 0 mm 0 mps 657 mmHg 53%
02:00 +21°C° 0 mm 0 mps 656 mmHg 54%
03:00 +21°C° 0 mm 0 mps 656 mmHg 54%
04:00 +21°C° 0 mm 0 mps 656 mmHg 56%
05:00 +20°C° 0 mm 0 mps 656 mmHg 57%
06:00 +20°C° 0 mm 0 mps 656 mmHg 58%
07:00 +21°C° 0 mm 0 mps 657 mmHg 53%
08:00 +24°C° 0 mm 1 mps 658 mmHg 48%
09:00 +25°C° 0 mm 1 mps 659 mmHg 43%
10:00 +27°C° 0 mm 2 mps 659 mmHg 40%
11:00 +28°C° 0 mm 2 mps 659 mmHg 37%
12:00 +29°C° 0 mm 3 mps 658 mmHg 35%
13:00 +29°C° 0 mm 3 mps 658 mmHg 37%
14:00 +29°C° 0 mm 4 mps 657 mmHg 39%
15:00 +29°C° 0 mm 4 mps 657 mmHg 42%
16:00 +28°C° 0 mm 3 mps 657 mmHg 45%
17:00 +27°C° 0 mm 3 mps 657 mmHg 48%
18:00 +26°C° 0 mm 3 mps 657 mmHg 51%
19:00 +26°C° 0 mm 2 mps 657 mmHg 51%
20:00 +26°C° 0 mm 1 mps 657 mmHg 52%
21:00 +23°C° 0 mm 0 mps 658 mmHg 52%
22:00 +23°C° 0 mm 0 mps 657 mmHg 52%
23:00 +23°C° 0 mm 0 mps 657 mmHg 51%

11 March, Thursday

Time Temperature Precipitation Wind Pressure Humidity
00:00 +23°C° 0 mm 0 mps 657 mmHg 51%
01:00 +22°C° 0 mm 0 mps 656 mmHg 52%
02:00 +22°C° 0 mm 0 mps 656 mmHg 53%
03:00 +22°C° 0 mm 0 mps 655 mmHg 54%
04:00 +21°C° 0 mm 0 mps 655 mmHg 55%
05:00 +21°C° 0 mm 0 mps 655 mmHg 55%
06:00 +20°C° 0 mm 0 mps 655 mmHg 55%
07:00 +22°C° 0 mm 0 mps 656 mmHg 49%
08:00 +25°C° 0 mm 1 mps 657 mmHg 43%
09:00 +27°C° 0 mm 1 mps 658 mmHg 36%
10:00 +28°C° 0 mm 2 mps 658 mmHg 34%
11:00 +29°C° 0 mm 3 mps 658 mmHg 33%
12:00 +30°C° 0 mm 3 mps 658 mmHg 31%
13:00 +30°C° 0 mm 4 mps 657 mmHg 33%
14:00 +30°C° 0 mm 4 mps 657 mmHg 36%
15:00 +30°C° 0 mm 4 mps 656 mmHg 38%
16:00 +29°C° 0 mm 4 mps 656 mmHg 42%
17:00 +28°C° 0 mm 3 mps 656 mmHg 45%
18:00 +27°C° 0 mm 3 mps 656 mmHg 49%
19:00 +27°C° 0 mm 2 mps 656 mmHg 51%
20:00 +26°C° 0 mm 1 mps 656 mmHg 54%
21:00 +24°C° 0 mm 0 mps 657 mmHg 56%
22:00 +26°C° 0 mm 1 mps 657 mmHg 56%
23:00 +26°C° 0 mm 1 mps 657 mmHg 56%
Show more

We Need Your Consent

Meteoprog and our Service Providers may store and access personal data such as cookies, device identifiers or other similar technologies on your device and process such data to personalise content and ads, as well as provide social media features and to analyse the traffic.

  • Store and/or access information on your device

    Cookies, device identifiers or other information can be stored or accessed on your device for the purposes indicated above.

  • Personalised ads and content, ad and content measurement, audience insights, and products development

    Ads and content can be personalised based on a profile. More data can be added to better personalise ads and content. Ad and content performance can be measured. Insights about the audience who saw the ads and content can be derived. Such data can be used to develop or improve user’s experience, systems and software.

By clicking ‘I Agree’ you will allow the use of indicated cookies, device identifiers, web beacons or other similar technologies. Your settings can be changed in the browser on your device.

For certain purposes, legitimate interests may be relied on, rather than consent. You can read more about this in our Privacy and Cookie Policy.